537  
AXUS43 KLBF 220010  
MISLBF  
 
WESTERN AND NORTH CENTRAL NEBRASKA HOURLY WEATHER ROUNDUP  
NATIONAL WEATHER SERVICE NORTH PLATTE NE  
600 PM CST MON JAN 21 2019  
 
NOTE: "FAIR" INDICATES FEW OR NO CLOUDS BELOW 12,000 FEET WITH NO  
SIGNIFICANT WEATHER AND/OR OBSTRUCTIONS TO VISIBILITY.  
 
NOTE: STATIONS NOT REPORTING SKY/WEATHER AND PRESSURE ARE  
PROVIDED BY RAWS AND APRS NETWORKS AND ARE NOT UNDER NATIONAL  
WEATHER SERVICE QUALITY CONTROL.  
   
..OBSERVATIONS IN AND NEAR THE EASTERN PANHANDLE OF NEBRASKA
 
 
 
CITY SKY/WX TMP DP RH WIND PRES REMARKS  
PINE RIDGE CLOUDY 25 25 100 VRB7G21 29.59R FOG WCI 17  
GORDON CLOUDY 28 27 94 N17 29.55R FOG WCI 16  
CHADRON LGT SNOW 24 23 96 NE16 29.59R FOG WCI 11  
ALLIANCE CLOUDY 25 24 96 SE6 29.51R WCI 18  
SIDNEY CLOUDY 25 24 96 E8 29.51R WCI 16  

 
   
..OBSERVATIONS IN NORTHERN NEBRASKA AND FAR SOUTHERN SOUTH DAKOTA
 
 
 
CITY SKY/WX TMP DP RH WIND PRES REMARKS  
WINNER CLOUDY 21 16 81 SE12 29.69R WCI 9  
VALENTINE CLOUDY 24 21 88 S9 29.62R WCI 14  
AINSWORTH CLOUDY 20 20 99 CALM 29.64R FOG  
O'NEILL CLOUDY 18 17 93 SE6 29.72R FOG WCI 10  
THEDFORD CLOUDY 22 21 96 CALM 29.61R FOG  
BROKEN BOW CLOUDY 23 20 88 SE9 29.63R FOG WCI 13  
ORD CLOUDY 22 21 96 SE6 29.69R FOG WCI 14  
ALBION LGT SNOW 20 18 91 SE12 29.74R WCI 8  
EWING N/A 17 15 93 SE3 N/A  
CHAMBERS N/A 18 16 91 E7 N/A WCI 9  
BUTTE N/A 16 14 92 SE14G21 N/A WCI 2  
VALENTINE NWR N/A 20 19 96 S6 N/A WCI 12  

 
   
..OBSERVATIONS IN SOUTHWEST NEBRASKA AND FAR NORTHEAST COLORADO
 
 
 
CITY SKY/WX TMP DP RH WIND PRES REMARKS  
WRAY CLOUDY 30 28 93 E6 29.50 WCI 24  
HOLYOKE FOG 27 23 86 E7 29.51 VSB 1/4 WCI 19  
IMPERIAL CLOUDY 24 19 81 E9 29.54R HAZE WCI 14  
OGALLALA CLOUDY N/A N/A N/A CALM 29.56R HAZE  
NORTH PLATTE CLOUDY 26 22 84 SE5 29.59F FOG WCI 20  
MCCOOK FOG 25 24 96 NE10 29.57S VSB 1 WCI 15  
LEXINGTON CLOUDY 26 25 96 E3 29.62S FOG  
GOTHENBURG N/A 24 22 92 CALM N/A  
CALLAWAY N/A 22 21 94 SE3 N/A  
STAPLETON N/A 20 19 94 CALM N/A  

 
   
..OBSERVATIONS IN CENTRAL LINCOLN COUNTY AREA
 
 
 
CITY SKY/WX TMP DP RH WIND PRES REMARKS  
N.P. AIRPORT CLOUDY 26 22 84 SE5 29.59F FOG WCI 20  
N.P. DOWNTOWN N/A 22 21 95 CALM N/A  
N.P. SOUTHEAST N/A 21 19 93 CALM N/A  

 
   
..OBSERVATIONS ACROSS THE ROCKIES AND WESTERN HIGH PLAINS
 
 
 
CITY SKY/WX TMP DP RH WIND PRES REMARKS  
SCOTTSBLUFF CLOUDY 32 28 85 SE5 29.49F WCI 27  
KIMBALL CLOUDY 36 27 70 NE9 29.47R WCI 29  
CHEYENNE CLOUDY 38 27 64 N8 29.47R WCI 32  
DENVER MOCLDY 38 28 67 S7 29.45R WCI 33  
STEAMBOAT CLOUDY 32 25 76 N5 29.52 WCI 28  
COPPER MTN SNOW 19 14 79 CALM 29.53 VSB 1/4  
LEADVILLE CLOUDY 21 17 84 CALM 29.52  
ASPEN FLURRIES 28 25 88 N7 29.53R WCI 21  
GUNNISON FLURRIES 23 19 85 E8 29.57S WCI 14  
TELLURIDE MOCLDY 27 12 54 W10G22 29.62 WCI 17  
LARAMIE CLOUDY 32 26 78 W7 29.47R WCI 26  
CASPER LGT SNOW 25 23 92 N24G31 29.64R FOG WCI 9  
SHERIDAN LGT SNOW 26 23 88 NW26 29.83R FOG WCI 10  
JACKSON HOLE FLURRIES 25 17 72 N22 29.73R WCI 10  
YELLOWSTONE N/A 18 11 74 W5 29.77R WCI 11  

 
   
..OBSERVATIONS ACROSS THE NORTHERN PLAINS
 
 
 
CITY SKY/WX TMP DP RH WIND PRES REMARKS  
RAPID CITY CLOUDY 18 14 84 N23G32 29.65R WCI 0  
PIERRE CLOUDY 18 15 88 E13 29.72R WCI 5  
SIOUX FALLS CLOUDY 19 12 74 SE22G29 29.84R WCI 2  
ABERDEEN LGT SNOW 15 10 80 E16 29.88R WCI -1  
WILLISTON MOCLDY 14 7 73 N10 29.93R WCI 1  
DICKINSON LGT SNOW 9 5 84 N7 29.79R FOG WCI -2  
BISMARCK LGT SNOW 12 8 84 E12 29.87R FOG WCI -2  
FARGO CLOUDY 12 6 77 SE9 30.02S WCI 0  

 
   
..OBSERVATIONS ACROSS THE CENTRAL AND SOUTHERN PLAINS
 
 
 
CITY SKY/WX TMP DP RH WIND PRES REMARKS  
OMAHA CLOUDY 21 13 71 SE18 29.86F WCI 6  
GRAND ISLAND CLOUDY 23 20 88 E10 29.68R WCI 12  
KANSAS CITY CLOUDY 30 24 78 SE15 29.85R WCI 19  
WICHITA CLOUDY 46 34 62 S21G33 29.66S  
DODGE CITY CLOUDY 48 33 56 S22 29.47F  
OKLAHOMA CITY CLOUDY 49 33 54 S23G33 29.75F  
DALLAS CLOUDY 57 42 57 S21G32 29.94F  
AMARILLO CLOUDY 58 24 27 SE9 29.56F  

 
 
 
CLICK HERE TO GO TO PREVIOUS BULLETINS.

The Nexlab NE Page Main Text Page